Location: Chalk Mountain Church
(32.1446°N, 97.8953°W)
Time: 22:35:46
(UTC+00:00)

Daily predictions for brighter satellites

Satellite Brightness Start Highest point End
(mag) Time Altitude Azimuth Time Altitude Azimuth Time Altitude Azimuth
Cosmos 2084 4.5 12:04:21 24° WSW 12:04:21 24° WSW 12:07:27 10° SSW
Cosmos 2369 3.8 12:00:06 10° SW 12:05:36 50° WNW 12:11:06 10° N
Aurora 2 Rocket 4.2 12:02:31 19° WSW 12:05:53 39° S 12:12:24 10° ESE
Cosmos 1400 Rocket 2.5 12:03:26 10° SSW 12:07:10 65° W 12:10:57 10° N
Cosmos 773 Rocket 4.4 12:05:53 10° NNW 12:10:44 40° W 12:15:32 10° S
Cosmos 1782 Rocket 3.5 12:06:57 10° S 12:11:20 85° W 12:15:46 10° N
Cosmos 1908 Rocket 4.0 12:07:41 10° SSW 12:11:40 36° W 12:15:43 10° NNW
SL-16 R/B 2.6 12:08:31 10° S 12:14:06 68° ESE 12:19:44 10° NNE
Cosmos 1812 1.9 12:13:28 18° SW 12:14:55 38° W 12:17:10 10° N
Cosmos 2208 Rocket 4.5 12:10:08 10° NNW 12:15:12 41° W 12:20:14 10° S
CZ-4 R/B 4.1 12:12:04 10° N 12:16:52 50° WNW 12:21:37 10° SSW
IGS 5A 3.3 12:14:00 10° N 12:17:59 88° W 12:21:56 10° SSW
Cosmos 372 Rocket 3.9 12:18:54 10° SSW 12:23:57 82° WNW 12:29:04 10° NNE
Cosmos 2333 Rocket 2.7 12:20:30 10° S 12:26:11 67° ESE 12:31:53 10° NNE
Cosmos 2227 Rocket 3.0 12:21:23 10° NW 12:26:13 30° WSW 12:31:04 10° SSW
Cosmos 1898 Rocket 3.5 12:28:12 10° SSW 12:33:28 88° WNW 12:38:48 10° NNE
Hubble Space Telescope 3.4 12:32:26 10° S 12:33:40 11° SSE 12:34:56 10° SE
Cosmos 1869 3.3 12:30:20 10° SSW 12:33:43 42° W 12:37:05 10° N
DELTA 2 R/B (1) 3.7 12:30:47 10° WSW 12:36:19 77° SSE 12:41:54 10° ENE
Cosmos 2221 Rocket 4.3 12:33:13 10° NNW 12:37:16 33° W 12:41:17 10° SSW
Cosmos 2173 Rocket 4.1 12:33:45 10° S 12:40:06 85° W 12:46:30 10° N
BREEZE-M DEB (TANK) 2.2 12:37:58 10° SW 12:40:12 78° NW 12:44:35 10° NE
Cosmos 1025 Rocket 4.2 12:37:16 10° NW 12:40:33 21° W 12:43:48 10° SW
Cosmos 2322 Rocket 2.7 12:38:59 10° S 12:44:36 68° ESE 12:50:13 10° NNE
Cosmos 1937 Rocket 3.5 12:41:33 10° SSW 12:46:40 88° ESE 12:51:51 10° NNE
Cosmos 1346 Rocket 2.8 12:43:23 10° N 12:47:03 77° E 12:50:43 10° SSE
SL-4 R/B 1.9 12:43:28 10° NW 12:47:08 74° NE 12:50:57 10° SE
NOSS 3-1 (A) 3.9 12:44:12 10° WSW 12:47:52 24° NW 12:52:00 10° N
DMSP B5D1-3 4.5 12:42:58 10° S 12:48:00 77° WSW 12:53:04 10° NNW
Cosmos 1980 Rocket 4.0 12:47:00 10° WNW 12:48:09 11° NW 12:49:19 10° NW
BREEZE-M DEB (TANK) 2.3 12:45:54 10° WSW 12:48:29 72° NW 12:54:56 10° NE
Cosmos 2219 Rocket 4.1 12:43:58 10° SSE 12:49:02 36° ESE 12:54:06 10° NE
COSMO-SKYMED 1 3.1 12:45:44 10° SSW 12:49:29 35° W 12:53:15 10° NNW
USA 215 4.2 12:44:25 10° ESE 12:50:37 46° NE 12:56:50 10° NNW
Cosmos 2100 Rocket 4.1 12:46:49 10° SSW 12:53:06 64° W 12:59:25 10° N
